Time,TemperatureF,DewpointF,PressureIn,WindDirection,WindDirectionDegrees,WindSpeedMPH,WindSpeedGustMPH,Humidity,HourlyPrecipIn,Conditions,Clouds,dailyrainin,SoftwareType,DateUTC
2013-04-08 00:02:00,39.1,38.6,29.71,East,99,2.0,3.0,98,0.01,,---,0.00,VWS V14.01,2013-04-08 05:02:00,
2013-04-08 00:07:00,39.1,38.6,29.71,East,97,2.0,5.0,98,0.01,,---,0.00,VWS V14.01,2013-04-08 05:07:00,
2013-04-08 00:12:00,38.9,38.4,29.71,ENE,73,1.0,3.0,98,0.01,,---,0.00,VWS V14.01,2013-04-08 05:12:00,
2013-04-08 00:17:00,38.9,38.4,29.70,ESE,106,2.0,5.0,98,0.01,,---,0.00,VWS V14.01,2013-04-08 05:17:00,
2013-04-08 00:22:00,38.9,38.4,29.70,East,93,0.0,2.0,98,0.01,,---,0.00,VWS V14.01,2013-04-08 05:22:00,
2013-04-08 00:27:00,39.1,38.6,29.70,East,89,3.0,6.0,98,0.01,,---,0.00,VWS V14.01,2013-04-08 05:27:00,
2013-04-08 00:32:00,39.1,38.6,29.70,ESE,113,2.0,2.0,98,0.00,,---,0.00,VWS V14.01,2013-04-08 05:32:00,
2013-04-08 00:37:00,39.1,38.6,29.70,East,90,1.0,3.0,98,0.00,,---,0.00,VWS V14.01,2013-04-08 05:37:00,
2013-04-08 00:42:00,39.3,39.0,29.70,East,88,1.0,3.0,99,0.00,,---,0.00,VWS V14.01,2013-04-08 05:42:00,
2013-04-08 00:47:00,39.3,39.0,29.70,ESE,102,0.0,3.0,99,0.00,,---,0.00,VWS V14.01,2013-04-08 05:47:00,
2013-04-08 00:52:00,39.3,39.0,29.70,ESE,107,2.0,2.0,99,0.00,,---,0.00,VWS V14.01,2013-04-08 05:52:00,
2013-04-08 00:57:00,39.3,39.0,29.70,East,99,2.0,3.0,99,0.00,,---,0.00,VWS V14.01,2013-04-08 05:57:00,
2013-04-08 01:02:00,39.2,38.9,29.70,East,93,1.0,1.0,99,0.00,,---,0.00,VWS V14.01,2013-04-08 06:02:00,
2013-04-08 01:07:00,39.2,38.9,29.70,East,100,0.0,5.0,99,0.00,,---,0.00,VWS V14.01,2013-04-08 06:07:00,
2013-04-08 01:12:00,39.2,38.9,29.70,ESE,103,2.0,4.0,99,0.00,,---,0.00,VWS V14.01,2013-04-08 06:12:00,
2013-04-08 01:17:00,39.2,38.9,29.70,East,97,1.0,4.0,99,0.00,,---,0.00,VWS V14.01,2013-04-08 06:17:00,
2013-04-08 01:22:00,39.2,38.9,29.70,East,93,2.0,3.0,99,0.00,,---,0.00,VWS V14.01,2013-04-08 06:22:00,
2013-04-08 01:27:00,39.1,38.8,29.70,East,82,0.0,5.0,99,0.00,,---,0.00,VWS V14.01,2013-04-08 06:27:00,
2013-04-08 01:32:00,38.9,38.6,29.70,East,93,2.0,2.0,99,0.00,,---,0.00,VWS V14.01,2013-04-08 06:32:00,
2013-04-08 01:37:00,38.9,38.6,29.70,East,95,0.0,5.0,99,0.00,,---,0.00,VWS V14.01,2013-04-08 06:37:00,
2013-04-08 01:42:00,38.8,38.5,29.70,East,85,2.0,2.0,99,0.00,,---,0.00,VWS V14.01,2013-04-08 06:42:00,
2013-04-08 01:47:00,38.8,38.5,29.69,East,90,0.0,3.0,99,0.00,,---,0.00,VWS V14.01,2013-04-08 06:47:00,
2013-04-08 01:52:00,38.8,38.5,29.69,NE,56,2.0,2.0,99,0.00,,---,0.00,VWS V14.01,2013-04-08 06:52:00,
2013-04-08 01:57:00,38.6,38.3,29.69,East,89,1.0,3.0,99,0.00,,---,0.00,VWS V14.01,2013-04-08 06:57:00,
2013-04-08 02:02:00,38.5,38.2,29.69,ENE,78,2.0,6.0,99,0.00,,---,0.00,VWS V14.01,2013-04-08 07:02:00,
2013-04-08 02:07:00,38.3,38.0,29.69,East,82,3.0,6.0,99,0.00,,---,0.00,VWS V14.01,2013-04-08 07:07:00,
2013-04-08 02:12:00,38.2,37.9,29.69,ESE,104,2.0,6.0,99,0.00,,---,0.00,VWS V14.01,2013-04-08 07:12:00,
2013-04-08 02:17:00,38.2,37.9,29.68,East,93,0.0,6.0,99,0.00,,---,0.00,VWS V14.01,2013-04-08 07:17:00,
2013-04-08 02:22:00,38.0,37.7,29.68,ENE,78,1.0,2.0,99,0.00,,---,0.00,VWS V14.01,2013-04-08 07:22:00,
2013-04-08 02:27:00,37.9,37.6,29.68,NE,52,0.0,2.0,99,0.00,,---,0.00,VWS V14.01,2013-04-08 07:27:00,
2013-04-08 02:32:00,37.8,37.5,29.68,East,79,1.0,2.0,99,0.00,,---,0.00,VWS V14.01,2013-04-08 07:32:00,
2013-04-08 02:37:00,37.6,37.3,29.68,East,82,0.0,2.0,99,0.00,,---,0.00,VWS V14.01,2013-04-08 07:37:00,
2013-04-08 02:42:00,37.6,37.3,29.68,ENE,69,0.0,1.0,99,0.00,,---,0.00,VWS V14.01,2013-04-08 07:42:00,
2013-04-08 02:47:00,37.6,37.3,29.68,ENE,73,0.0,2.0,99,0.00,,---,0.00,VWS V14.01,2013-04-08 07:47:00,
2013-04-08 02:52:00,37.5,37.2,29.68,ENE,76,0.0,2.0,99,0.00,,---,0.00,VWS V14.01,2013-04-08 07:52:00,
2013-04-08 02:57:00,37.3,37.0,29.68,ENE,78,1.0,2.0,99,0.00,,---,0.00,VWS V14.01,2013-04-08 07:57:00,
2013-04-08 03:02:00,37.2,37.0,29.68,ENE,71,0.0,0.0,99,0.00,,---,0.00,VWS V14.01,2013-04-08 08:02:00,
2013-04-08 03:07:00,37.2,37.0,29.68,East,82,1.0,3.0,99,0.00,,---,0.00,VWS V14.01,2013-04-08 08:07:00,
2013-04-08 03:12:00,37.0,36.8,29.68,East,99,1.0,2.0,99,0.00,,---,0.00,VWS V14.01,2013-04-08 08:12:00,
2013-04-08 03:17:00,36.9,36.7,29.68,ENE,76,1.0,3.0,99,0.01,,---,0.01,VWS V14.01,2013-04-08 08:17:00,
2013-04-08 03:22:00,36.9,36.7,29.68,ENE,71,0.0,3.0,99,0.01,,---,0.01,VWS V14.01,2013-04-08 08:22:00,
2013-04-08 03:27:00,36.9,36.7,29.68,ENE,73,0.0,3.0,99,0.01,,---,0.01,VWS V14.01,2013-04-08 08:27:00,
2013-04-08 03:32:00,36.8,36.8,29.67,NE,38,2.0,5.0,100,0.01,,---,0.01,VWS V14.01,2013-04-08 08:32:00,
2013-04-08 03:37:00,36.6,36.6,29.67,ENE,73,2.0,9.0,100,0.01,,---,0.01,VWS V14.01,2013-04-08 08:37:00,
2013-04-08 03:42:00,36.6,36.6,29.67,East,89,0.0,3.0,100,0.01,,---,0.01,VWS V14.01,2013-04-08 08:42:00,
2013-04-08 03:47:00,36.5,36.5,29.67,ENE,75,1.0,3.0,100,0.01,,---,0.01,VWS V14.01,2013-04-08 08:47:00,
2013-04-08 03:52:00,36.5,36.5,29.67,North,0,0.0,4.0,100,0.01,,---,0.01,VWS V14.01,2013-04-08 08:52:00,
2013-04-08 03:57:00,36.5,36.5,29.67,ENE,78,0.0,4.0,100,0.01,,---,0.01,VWS V14.01,2013-04-08 08:57:00,
2013-04-08 04:02:00,36.5,36.5,29.67,East,83,0.0,2.0,100,0.01,,---,0.01,VWS V14.01,2013-04-08 09:02:00,
2013-04-08 04:07:00,36.3,36.3,29.67,NE,51,2.0,5.0,100,0.01,,---,0.01,VWS V14.01,2013-04-08 09:07:00,
2013-04-08 04:12:00,36.3,36.3,29.67,East,88,1.0,3.0,100,0.01,,---,0.01,VWS V14.01,2013-04-08 09:12:00,
2013-04-08 04:17:00,36.3,36.3,29.67,ENE,78,2.0,3.0,100,0.01,,---,0.01,VWS V14.01,2013-04-08 09:17:00,
2013-04-08 04:22:00,36.2,36.2,29.67,East,83,0.0,2.0,100,0.00,,---,0.01,VWS V14.01,2013-04-08 09:22:00,
2013-04-08 04:27:00,36.2,36.2,29.67,East,89,2.0,5.0,100,0.00,,---,0.01,VWS V14.01,2013-04-08 09:27:00,
2013-04-08 04:32:00,36.2,36.2,29.66,East,82,0.0,0.0,100,0.00,,---,0.01,VWS V14.01,2013-04-08 09:32:00,
2013-04-08 04:37:00,36.2,36.2,29.66,NE,52,0.0,7.0,100,0.00,,---,0.01,VWS V14.01,2013-04-08 09:37:00,
2013-04-08 04:42:00,36.2,36.2,29.66,NE,49,2.0,2.0,100,0.00,,---,0.01,VWS V14.01,2013-04-08 09:42:00,
2013-04-08 04:47:00,36.2,36.2,29.67,ENE,76,1.0,3.0,100,0.00,,---,0.01,VWS V14.01,2013-04-08 09:47:00,
2013-04-08 04:52:00,36.2,36.2,29.67,NE,42,2.0,2.0,100,0.00,,---,0.01,VWS V14.01,2013-04-08 09:52:00,
2013-04-08 04:57:00,36.2,36.2,29.67,East,79,2.0,5.0,100,0.00,,---,0.01,VWS V14.01,2013-04-08 09:57:00,
2013-04-08 05:02:00,36.2,36.2,29.66,East,97,3.0,3.0,100,0.00,,---,0.01,VWS V14.01,2013-04-08 10:02:00,
2013-04-08 05:07:00,36.0,36.0,29.66,NNE,28,4.0,5.0,100,0.00,,---,0.01,VWS V14.01,2013-04-08 10:07:00,
2013-04-08 05:12:00,36.0,36.0,29.66,NE,40,2.0,2.0,100,0.00,,---,0.01,VWS V14.01,2013-04-08 10:12:00,
2013-04-08 05:17:00,36.0,36.0,29.66,ENE,78,3.0,5.0,100,0.00,,---,0.01,VWS V14.01,2013-04-08 10:17:00,
2013-04-08 05:22:00,36.0,36.0,29.66,ENE,66,2.0,3.0,100,0.00,,---,0.01,VWS V14.01,2013-04-08 10:22:00,
2013-04-08 05:27:00,35.9,35.9,29.66,East,88,2.0,4.0,100,0.00,,---,0.01,VWS V14.01,2013-04-08 10:27:00,
2013-04-08 05:32:00,35.9,35.9,29.65,ENE,71,1.0,5.0,100,0.00,,---,0.01,VWS V14.01,2013-04-08 10:32:00,
2013-04-08 05:37:00,35.9,35.9,29.65,East,86,0.0,5.0,100,0.00,,---,0.01,VWS V14.01,2013-04-08 10:37:00,
2013-04-08 05:42:00,35.9,35.9,29.65,NE,48,0.0,2.0,100,0.00,,---,0.01,VWS V14.01,2013-04-08 10:42:00,
2013-04-08 05:47:00,35.9,35.9,29.65,ENE,62,0.0,2.0,100,0.00,,---,0.01,VWS V14.01,2013-04-08 10:47:00,
2013-04-08 05:52:00,35.9,35.9,29.65,ENE,69,2.0,5.0,100,0.00,,---,0.01,VWS V14.01,2013-04-08 10:52:00,
2013-04-08 05:57:00,35.9,35.9,29.65,East,100,2.0,5.0,100,0.00,,---,0.01,VWS V14.01,2013-04-08 10:57:00,
2013-04-08 06:02:00,35.9,35.9,29.65,NE,54,0.0,5.0,100,0.00,,---,0.01,VWS V14.01,2013-04-08 11:02:00,
2013-04-08 06:07:00,35.9,35.9,29.65,ENE,68,0.0,7.0,100,0.00,,---,0.01,VWS V14.01,2013-04-08 11:07:00,
2013-04-08 06:12:00,35.9,35.9,29.65,NNE,20,0.0,3.0,100,0.00,,---,0.01,VWS V14.01,2013-04-08 11:12:00,
2013-04-08 06:17:00,35.8,35.8,29.65,NNE,24,2.0,6.0,100,0.00,,---,0.01,VWS V14.01,2013-04-08 11:17:00,
2013-04-08 06:22:00,35.8,35.8,29.65,NNE,31,7.0,9.0,100,0.00,,---,0.01,VWS V14.01,2013-04-08 11:22:00,
2013-04-08 06:27:00,35.8,35.8,29.65,NE,49,2.0,11.0,100,0.00,,---,0.01,VWS V14.01,2013-04-08 11:27:00,
2013-04-08 06:32:00,35.8,35.8,29.66,East,83,1.0,6.0,100,0.00,,---,0.01,VWS V14.01,2013-04-08 11:32:00,
2013-04-08 06:37:00,35.6,35.6,29.66,ENE,72,1.0,6.0,100,0.00,,---,0.01,VWS V14.01,2013-04-08 11:37:00,
2013-04-08 06:42:00,35.6,35.6,29.66,ENE,58,2.0,5.0,100,0.00,,---,0.01,VWS V14.01,2013-04-08 11:42:00,
2013-04-08 06:47:00,35.8,35.8,29.66,ENE,65,1.0,5.0,100,0.00,,---,0.01,VWS V14.01,2013-04-08 11:47:00,
2013-04-08 06:52:00,35.8,35.8,29.66,NNE,28,10.0,10.0,100,0.00,,---,0.01,VWS V14.01,2013-04-08 11:52:00,
2013-04-08 06:57:00,35.6,35.6,29.66,ENE,75,2.0,10.0,100,0.00,,---,0.01,VWS V14.01,2013-04-08 11:57:00,
2013-04-08 07:02:00,35.6,35.6,29.67,ENE,62,2.0,3.0,100,0.00,,---,0.01,VWS V14.01,2013-04-08 12:02:00,
2013-04-08 07:07:00,35.8,35.8,29.67,ENE,58,2.0,7.0,100,0.00,,---,0.01,VWS V14.01,2013-04-08 12:07:00,
2013-04-08 07:12:00,35.8,35.8,29.67,East,85,1.0,5.0,100,0.00,,---,0.01,VWS V14.01,2013-04-08 12:12:00,
2013-04-08 07:17:00,35.8,35.8,29.68,NNE,27,3.0,6.0,100,0.00,,---,0.01,VWS V14.01,2013-04-08 12:17:00,
2013-04-08 07:22:00,35.8,35.8,29.68,ENE,58,1.0,5.0,100,0.00,,---,0.01,VWS V14.01,2013-04-08 12:22:00,
2013-04-08 07:27:00,35.8,35.8,29.68,East,82,2.0,7.0,100,0.00,,---,0.01,VWS V14.01,2013-04-08 12:27:00,
2013-04-08 07:32:00,35.6,35.6,29.69,East,85,1.0,3.0,100,0.00,,---,0.01,VWS V14.01,2013-04-08 12:32:00,
2013-04-08 07:37:00,35.8,35.8,29.69,NNE,20,4.0,7.0,100,0.00,,---,0.01,VWS V14.01,2013-04-08 12:37:00,
2013-04-08 07:42:00,35.8,35.8,29.69,NNE,28,7.0,8.0,100,0.00,,---,0.01,VWS V14.01,2013-04-08 12:42:00,
2013-04-08 07:47:00,35.8,35.8,29.70,NE,48,0.0,10.0,100,0.00,,---,0.01,VWS V14.01,2013-04-08 12:47:00,
2013-04-08 07:52:00,35.6,35.6,29.70,ENE,78,2.0,3.0,100,0.00,,---,0.01,VWS V14.01,2013-04-08 12:52:00,
2013-04-08 07:57:00,35.6,35.6,29.70,NE,49,2.0,4.0,100,0.00,,---,0.01,VWS V14.01,2013-04-08 12:57:00,
2013-04-08 08:02:00,35.6,35.6,29.70,NE,47,1.0,5.0,100,0.00,,---,0.01,VWS V14.01,2013-04-08 13:02:00,
2013-04-08 08:07:00,35.8,35.8,29.70,ESE,106,5.0,7.0,100,0.00,,---,0.01,VWS V14.01,2013-04-08 13:07:00,
2013-04-08 08:12:00,35.8,35.8,29.70,ESE,106,0.0,2.0,100,0.00,,---,0.01,VWS V14.01,2013-04-08 13:12:00,
2013-04-08 08:17:00,35.8,35.8,29.71,East,99,0.0,3.0,100,0.00,,---,0.01,VWS V14.01,2013-04-08 13:17:00,
2013-04-08 08:22:00,35.8,35.8,29.71,East,93,1.0,2.0,100,0.00,,---,0.01,VWS V14.01,2013-04-08 13:22:00,
2013-04-08 08:27:00,35.8,35.8,29.71,ENE,59,0.0,3.0,100,0.00,,---,0.01,VWS V14.01,2013-04-08 13:27:00,
2013-04-08 08:32:00,35.9,35.9,29.71,ENE,76,3.0,3.0,100,0.00,,---,0.01,VWS V14.01,2013-04-08 13:32:00,
2013-04-08 08:37:00,36.0,36.0,29.71,ENE,64,2.0,5.0,100,0.00,,---,0.01,VWS V14.01,2013-04-08 13:37:00,
2013-04-08 08:42:00,36.2,36.2,29.71,East,86,0.0,2.0,100,0.00,,---,0.01,VWS V14.01,2013-04-08 13:42:00,
2013-04-08 08:47:00,36.5,36.5,29.71,East,85,1.0,7.0,100,0.00,,---,0.01,VWS V14.01,2013-04-08 13:47:00,
2013-04-08 08:52:00,36.6,36.6,29.71,ENE,62,2.0,2.0,100,0.00,,---,0.01,VWS V14.01,2013-04-08 13:52:00,
2013-04-08 08:57:00,36.8,36.8,29.71,ENE,75,2.0,4.0,100,0.00,,---,0.01,VWS V14.01,2013-04-08 13:57:00,
2013-04-08 09:02:00,36.9,36.9,29.71,East,85,6.0,6.0,100,0.00,,---,0.01,VWS V14.01,2013-04-08 14:02:00,
2013-04-08 09:08:00,36.8,36.8,29.71,East,88,0.0,7.0,100,0.00,,---,0.01,VWS V14.01,2013-04-08 14:08:00,
2013-04-08 09:12:00,36.9,36.9,29.71,East,88,2.0,6.0,100,0.00,,---,0.01,VWS V14.01,2013-04-08 14:12:00,
2013-04-08 09:17:00,37.0,37.0,29.72,East,88,2.0,6.0,100,0.00,,---,0.01,VWS V14.01,2013-04-08 14:17:00,
2013-04-08 09:23:00,37.0,37.0,29.72,ENE,58,0.0,6.0,100,0.00,,---,0.01,VWS V14.01,2013-04-08 14:23:00,
2013-04-08 09:27:00,37.0,37.0,29.72,NE,56,2.0,6.0,100,0.00,,---,0.01,VWS V14.01,2013-04-08 14:27:00,
2013-04-08 09:32:00,37.2,37.2,29.73,East,80,2.0,5.0,100,0.00,,---,0.01,VWS V14.01,2013-04-08 14:32:00,
2013-04-08 09:37:00,37.2,37.2,29.73,ENE,71,1.0,5.0,100,0.00,,---,0.01,VWS V14.01,2013-04-08 14:37:00,
2013-04-08 09:42:00,37.0,37.0,29.73,ENE,72,0.0,2.0,100,0.00,,---,0.01,VWS V14.01,2013-04-08 14:42:00,
2013-04-08 09:47:00,37.0,37.0,29.73,NE,55,1.0,2.0,100,0.00,,---,0.01,VWS V14.01,2013-04-08 14:47:00,
2013-04-08 09:52:00,37.0,37.0,29.73,NE,54,2.0,3.0,100,0.00,,---,0.01,VWS V14.01,2013-04-08 14:52:00,
2013-04-08 09:57:00,37.2,37.2,29.73,ENE,66,2.0,3.0,100,0.00,,---,0.01,VWS V14.01,2013-04-08 14:57:00,
2013-04-08 10:02:00,37.2,37.2,29.73,ENE,69,1.0,3.0,100,0.00,,---,0.01,VWS V14.01,2013-04-08 15:02:00,
2013-04-08 10:07:00,37.3,37.3,29.73,East,86,4.0,5.0,100,0.00,,---,0.01,VWS V14.01,2013-04-08 15:07:00,
2013-04-08 10:12:00,37.3,37.3,29.73,East,80,1.0,7.0,100,0.00,,---,0.01,VWS V14.01,2013-04-08 15:12:00,
2013-04-08 10:17:00,37.5,37.5,29.72,ENE,72,1.0,7.0,100,0.00,,---,0.01,VWS V14.01,2013-04-08 15:17:00,
2013-04-08 10:22:00,37.8,37.8,29.72,ENE,66,1.0,3.0,100,0.00,,---,0.01,VWS V14.01,2013-04-08 15:22:00,
2013-04-08 10:27:00,37.9,37.9,29.72,NE,45,3.0,3.0,100,0.00,,---,0.01,VWS V14.01,2013-04-08 15:27:00,
2013-04-08 10:32:00,38.0,38.0,29.73,ENE,64,1.0,4.0,100,0.00,,---,0.01,VWS V14.01,2013-04-08 15:32:00,
2013-04-08 10:37:00,38.2,38.2,29.73,ENE,71,6.0,6.0,100,0.00,,---,0.01,VWS V14.01,2013-04-08 15:37:00,
2013-04-08 10:42:00,38.5,38.5,29.73,NE,54,0.0,3.0,100,0.00,,---,0.01,VWS V14.01,2013-04-08 15:42:00,
2013-04-08 10:48:00,38.8,38.8,29.73,ENE,66,2.0,5.0,100,0.00,,---,0.01,VWS V14.01,2013-04-08 15:48:00,
2013-04-08 10:52:00,39.3,39.3,29.73,ESE,103,1.0,7.0,100,0.00,,---,0.01,VWS V14.01,2013-04-08 15:52:00,
2013-04-08 10:57:00,39.6,39.6,29.73,East,79,2.0,8.0,100,0.00,,---,0.01,VWS V14.01,2013-04-08 15:57:00,
2013-04-08 11:02:00,39.9,39.9,29.74,ESE,104,2.0,7.0,100,0.00,,---,0.01,VWS V14.01,2013-04-08 16:02:00,
2013-04-08 11:07:00,39.9,39.9,29.74,SE,141,2.0,7.0,100,0.00,,---,0.01,VWS V14.01,2013-04-08 16:07:00,
2013-04-08 11:12:00,39.8,39.8,29.74,ENE,59,1.0,3.0,100,0.00,,---,0.01,VWS V14.01,2013-04-08 16:12:00,
2013-04-08 11:17:00,39.8,39.8,29.74,ENE,78,3.0,7.0,100,0.00,,---,0.01,VWS V14.01,2013-04-08 16:17:00,
2013-04-08 11:22:00,39.9,39.9,29.74,ESE,116,2.0,3.0,100,0.00,,---,0.01,VWS V14.01,2013-04-08 16:22:00,
2013-04-08 11:27:00,40.1,40.1,29.74,ENE,59,1.0,8.0,100,0.00,,---,0.01,VWS V14.01,2013-04-08 16:27:00,
2013-04-08 11:32:00,40.2,40.2,29.74,NE,49,1.0,6.0,100,0.00,,---,0.01,VWS V14.01,2013-04-08 16:32:00,
2013-04-08 11:37:00,40.2,40.2,29.74,North,1,0.0,8.0,100,0.00,,---,0.01,VWS V14.01,2013-04-08 16:37:00,
2013-04-08 11:42:00,40.3,40.3,29.74,North,3,5.0,8.0,100,0.00,,---,0.01,VWS V14.01,2013-04-08 16:42:00,
2013-04-08 11:47:00,39.9,39.9,29.75,NNE,13,1.0,11.0,100,0.00,,---,0.01,VWS V14.01,2013-04-08 16:47:00,
2013-04-08 11:52:00,39.8,39.5,29.75,ENE,72,2.0,3.0,99,0.00,,---,0.01,VWS V14.01,2013-04-08 16:52:00,
2013-04-08 11:57:00,39.8,39.5,29.75,NNE,13,7.0,11.0,99,0.00,,---,0.01,VWS V14.01,2013-04-08 16:57:00,
2013-04-08 12:02:00,39.6,39.3,29.76,ENE,61,2.0,2.0,99,0.00,,---,0.01,VWS V14.01,2013-04-08 17:02:00,
2013-04-08 12:07:00,39.6,39.3,29.76,ESE,110,1.0,8.0,99,0.00,,---,0.01,VWS V14.01,2013-04-08 17:07:00,
2013-04-08 12:12:00,39.6,39.1,29.76,ENE,76,1.0,5.0,98,0.00,,---,0.01,VWS V14.01,2013-04-08 17:12:00,
2013-04-08 12:17:00,39.6,39.1,29.76,ENE,65,0.0,8.0,98,0.00,,---,0.01,VWS V14.01,2013-04-08 17:17:00,
2013-04-08 12:22:00,39.6,39.1,29.76,ESE,109,1.0,2.0,98,0.00,,---,0.01,VWS V14.01,2013-04-08 17:22:00,
2013-04-08 12:27:00,39.8,39.3,29.76,North,8,2.0,8.0,98,0.00,,---,0.01,VWS V14.01,2013-04-08 17:27:00,
2013-04-08 12:32:00,39.8,39.3,29.76,ENE,58,0.0,6.0,98,0.00,,---,0.01,VWS V14.01,2013-04-08 17:32:00,
2013-04-08 12:37:00,39.5,39.0,29.76,ENE,78,2.0,6.0,98,0.00,,---,0.01,VWS V14.01,2013-04-08 17:37:00,
2013-04-08 12:42:00,39.5,39.0,29.76,East,89,0.0,3.0,98,0.00,,---,0.01,VWS V14.01,2013-04-08 17:42:00,
2013-04-08 12:47:00,39.8,39.3,29.77,ESE,107,2.0,7.0,98,0.00,,---,0.01,VWS V14.01,2013-04-08 17:47:00,
2013-04-08 12:52:00,39.9,39.4,29.77,ENE,78,1.0,2.0,98,0.00,,---,0.01,VWS V14.01,2013-04-08 17:52:00,
2013-04-08 12:57:00,40.3,39.8,29.77,ESE,120,0.0,7.0,98,0.00,,---,0.01,VWS V14.01,2013-04-08 17:57:00,
2013-04-08 13:02:00,40.3,39.8,29.77,South,171,1.0,2.0,98,0.00,,---,0.01,VWS V14.01,2013-04-08 18:02:00,
2013-04-08 13:07:00,40.3,39.5,29.77,NNE,32,1.0,6.0,97,0.00,,---,0.01,VWS V14.01,2013-04-08 18:07:00,
2013-04-08 13:12:00,40.3,39.5,29.77,ESE,103,1.0,3.0,97,0.00,,---,0.01,VWS V14.01,2013-04-08 18:12:00,
2013-04-08 13:17:00,40.2,39.2,29.78,ENE,71,0.0,5.0,96,0.00,,---,0.01,VWS V14.01,2013-04-08 18:17:00,
2013-04-08 13:22:00,39.9,38.6,29.78,ENE,59,0.0,5.0,95,0.00,,---,0.01,VWS V14.01,2013-04-08 18:22:00,
2013-04-08 13:27:00,39.9,38.6,29.78,ENE,69,2.0,5.0,95,0.00,,---,0.01,VWS V14.01,2013-04-08 18:27:00,
2013-04-08 13:32:00,40.1,39.0,29.78,NNE,18,1.0,6.0,96,0.00,,---,0.01,VWS V14.01,2013-04-08 18:32:00,
2013-04-08 13:37:00,40.2,38.9,29.78,ENE,72,0.0,6.0,95,0.00,,---,0.01,VWS V14.01,2013-04-08 18:37:00,
2013-04-08 13:42:00,40.2,38.9,29.78,ENE,59,1.0,3.0,95,0.00,,---,0.01,VWS V14.01,2013-04-08 18:42:00,
2013-04-08 13:47:00,40.5,39.2,29.79,ENE,78,0.0,7.0,95,0.00,,---,0.01,VWS V14.01,2013-04-08 18:47:00,
2013-04-08 13:52:00,40.8,39.5,29.79,SE,144,2.0,7.0,95,0.00,,---,0.01,VWS V14.01,2013-04-08 18:52:00,
2013-04-08 13:57:00,41.1,39.5,29.79,ENE,62,1.0,7.0,94,0.00,,---,0.01,VWS V14.01,2013-04-08 18:57:00,
2013-04-08 14:02:00,41.1,39.2,29.79,East,90,0.0,1.0,93,0.00,,---,0.01,VWS V14.01,2013-04-08 19:02:00,
2013-04-08 14:07:00,40.9,38.8,29.79,NNE,32,2.0,6.0,92,0.00,,---,0.01,VWS V14.01,2013-04-08 19:07:00,
2013-04-08 14:12:00,40.8,38.7,29.79,East,90,0.0,2.0,92,0.00,,---,0.01,VWS V14.01,2013-04-08 19:12:00,
2013-04-08 14:17:00,40.8,38.7,29.80,NE,34,5.0,5.0,92,0.00,,---,0.01,VWS V14.01,2013-04-08 19:17:00,
2013-04-08 14:22:00,40.9,38.8,29.80,NE,34,5.0,5.0,92,0.00,,---,0.01,VWS V14.01,2013-04-08 19:22:00,
2013-04-08 14:27:00,41.1,39.0,29.80,East,92,0.0,6.0,92,0.00,,---,0.01,VWS V14.01,2013-04-08 19:27:00,
2013-04-08 14:32:00,40.9,38.8,29.80,NE,51,0.0,3.0,92,0.00,,---,0.01,VWS V14.01,2013-04-08 19:32:00,
2013-04-08 14:37:00,40.8,38.7,29.80,ENE,64,2.0,7.0,92,0.00,,---,0.01,VWS V14.01,2013-04-08 19:37:00,
2013-04-08 14:42:00,40.6,38.5,29.80,ENE,73,1.0,1.0,92,0.00,,---,0.01,VWS V14.01,2013-04-08 19:42:00,
2013-04-08 14:47:00,40.8,38.7,29.80,East,79,0.0,6.0,92,0.00,,---,0.01,VWS V14.01,2013-04-08 19:47:00,
2013-04-08 14:52:00,40.9,38.8,29.80,ENE,75,2.0,4.0,92,0.00,,---,0.01,VWS V14.01,2013-04-08 19:52:00,
2013-04-08 14:57:00,40.9,38.5,29.80,East,79,1.0,6.0,91,0.00,,---,0.01,VWS V14.01,2013-04-08 19:57:00,
2013-04-08 15:02:00,41.1,38.7,29.80,NNE,27,2.0,5.0,91,0.00,,---,0.01,VWS V14.01,2013-04-08 20:02:00,
2013-04-08 15:07:00,41.1,38.4,29.80,ENE,78,0.0,5.0,90,0.00,,---,0.01,VWS V14.01,2013-04-08 20:07:00,
2013-04-08 15:12:00,40.9,38.2,29.80,ENE,65,2.0,3.0,90,0.00,,---,0.01,VWS V14.01,2013-04-08 20:12:00,
2013-04-08 15:17:00,40.9,38.5,29.80,NE,42,0.0,6.0,91,0.00,,---,0.01,VWS V14.01,2013-04-08 20:17:00,
2013-04-08 15:22:00,41.1,38.7,29.80,ENE,75,1.0,5.0,91,0.00,,---,0.01,VWS V14.01,2013-04-08 20:22:00,
2013-04-08 15:27:00,41.2,38.8,29.80,WSW,248,1.0,5.0,91,0.00,,---,0.01,VWS V14.01,2013-04-08 20:27:00,
2013-04-08 15:32:00,41.2,38.8,29.79,NNE,17,6.0,9.0,91,0.00,,---,0.01,VWS V14.01,2013-04-08 20:32:00,
2013-04-08 15:37:00,41.2,38.8,29.79,NNE,20,5.0,10.0,91,0.00,,---,0.01,VWS V14.01,2013-04-08 20:37:00,
2013-04-08 15:42:00,41.3,38.9,29.79,North,11,7.0,7.0,91,0.00,,---,0.01,VWS V14.01,2013-04-08 20:42:00,
2013-04-08 15:47:00,41.2,38.5,29.80,NNW,347,1.0,10.0,90,0.00,,---,0.01,VWS V14.01,2013-04-08 20:47:00,
2013-04-08 15:52:00,41.2,38.5,29.80,East,92,3.0,5.0,90,0.00,,---,0.01,VWS V14.01,2013-04-08 20:52:00,
2013-04-08 15:57:00,41.3,38.6,29.80,NE,51,1.0,8.0,90,0.00,,---,0.01,VWS V14.01,2013-04-08 20:57:00,
2013-04-08 16:02:00,41.5,38.8,29.81,NNE,30,1.0,7.0,90,0.00,,---,0.01,VWS V14.01,2013-04-08 21:02:00,
2013-04-08 16:07:00,41.8,38.8,29.81,East,85,2.0,11.0,89,0.00,,---,0.01,VWS V14.01,2013-04-08 21:07:00,
2013-04-08 16:12:00,41.8,38.8,29.81,East,99,5.0,6.0,89,0.00,,---,0.01,VWS V14.01,2013-04-08 21:12:00,
2013-04-08 16:17:00,41.8,38.8,29.82,NE,47,2.0,7.0,89,0.00,,---,0.01,VWS V14.01,2013-04-08 21:17:00,
2013-04-08 16:22:00,41.8,38.8,29.82,SE,127,1.0,7.0,89,0.00,,---,0.01,VWS V14.01,2013-04-08 21:22:00,
2013-04-08 16:27:00,41.6,38.6,29.82,SE,130,6.0,12.0,89,0.00,,---,0.01,VWS V14.01,2013-04-08 21:27:00,
2013-04-08 16:32:00,41.6,38.9,29.83,East,83,1.0,3.0,90,0.00,,---,0.01,VWS V14.01,2013-04-08 21:32:00,
2013-04-08 16:37:00,41.5,38.5,29.83,East,79,2.0,6.0,89,0.00,,---,0.01,VWS V14.01,2013-04-08 21:37:00,
2013-04-08 16:42:00,41.5,38.2,29.83,ESE,113,4.0,4.0,88,0.00,,---,0.01,VWS V14.01,2013-04-08 21:42:00,
2013-04-08 16:47:00,41.3,38.3,29.84,East,92,3.0,7.0,89,0.00,,---,0.01,VWS V14.01,2013-04-08 21:47:00,
2013-04-08 16:52:00,41.5,38.5,29.84,ENE,76,1.0,2.0,89,0.00,,---,0.01,VWS V14.01,2013-04-08 21:52:00,
2013-04-08 16:57:00,41.3,38.3,29.84,East,82,2.0,11.0,89,0.00,,---,0.01,VWS V14.01,2013-04-08 21:57:00,
2013-04-08 17:02:00,41.2,38.2,29.85,NE,44,7.0,11.0,89,0.00,,---,0.01,VWS V14.01,2013-04-08 22:02:00,
2013-04-08 17:07:00,41.2,37.9,29.85,North,0,7.0,11.0,88,0.00,,---,0.01,VWS V14.01,2013-04-08 22:07:00,
2013-04-08 17:12:00,41.2,37.9,29.85,NE,48,1.0,12.0,88,0.00,,---,0.01,VWS V14.01,2013-04-08 22:12:00,
2013-04-08 17:17:00,41.2,38.2,29.86,WSW,239,5.0,12.0,89,0.00,,---,0.01,VWS V14.01,2013-04-08 22:17:00,
2013-04-08 17:22:00,41.1,37.8,29.86,NW,325,0.0,11.0,88,0.00,,---,0.01,VWS V14.01,2013-04-08 22:22:00,
2013-04-08 17:27:00,40.9,37.3,29.86,ENE,76,2.0,11.0,87,0.00,,---,0.01,VWS V14.01,2013-04-08 22:27:00,
2013-04-08 17:32:00,40.9,37.3,29.87,East,92,2.0,2.0,87,0.00,,---,0.01,VWS V14.01,2013-04-08 22:32:00,
2013-04-08 17:37:00,40.9,37.3,29.87,East,93,5.0,6.0,87,0.00,,---,0.01,VWS V14.01,2013-04-08 22:37:00,
2013-04-08 17:42:00,40.9,37.6,29.87,NE,54,0.0,5.0,88,0.00,,---,0.01,VWS V14.01,2013-04-08 22:42:00,
2013-04-08 17:47:00,40.9,37.3,29.89,NNE,14,1.0,7.0,87,0.00,,---,0.01,VWS V14.01,2013-04-08 22:47:00,
2013-04-08 17:52:00,40.9,37.3,29.89,East,95,3.0,3.0,87,0.00,,---,0.01,VWS V14.01,2013-04-08 22:52:00,
2013-04-08 17:57:00,40.8,37.2,29.89,East,82,1.0,5.0,87,0.00,,---,0.01,VWS V14.01,2013-04-08 22:57:00,
2013-04-08 18:02:00,40.8,37.2,29.89,NE,48,1.0,4.0,87,0.00,,---,0.01,VWS V14.01,2013-04-08 23:02:00,
2013-04-08 18:07:00,40.8,37.2,29.89,East,99,3.0,6.0,87,0.00,,---,0.01,VWS V14.01,2013-04-08 23:07:00,
2013-04-08 18:12:00,40.8,37.2,29.89,ENE,76,4.0,4.0,87,0.00,,---,0.01,VWS V14.01,2013-04-08 23:12:00,
2013-04-08 18:17:00,40.8,37.2,29.89,NE,55,0.0,6.0,87,0.00,,---,0.01,VWS V14.01,2013-04-08 23:17:00,
2013-04-08 18:22:00,40.8,37.2,29.89,NE,49,0.0,3.0,87,0.00,,---,0.01,VWS V14.01,2013-04-08 23:22:00,
2013-04-08 18:27:00,40.8,37.2,29.89,NE,40,2.0,6.0,87,0.00,,---,0.01,VWS V14.01,2013-04-08 23:27:00,
2013-04-08 18:32:00,40.8,37.2,29.90,ESE,104,3.0,8.0,87,0.00,,---,0.01,VWS V14.01,2013-04-08 23:32:00,
2013-04-08 18:37:00,40.8,37.2,29.90,ENE,73,6.0,8.0,87,0.00,,---,0.01,VWS V14.01,2013-04-08 23:37:00,
2013-04-08 18:42:00,40.8,37.2,29.90,East,92,3.0,3.0,87,0.00,,---,0.01,VWS V14.01,2013-04-08 23:42:00,
2013-04-08 18:47:00,40.8,37.5,29.91,NNE,13,5.0,8.0,88,0.00,,---,0.01,VWS V14.01,2013-04-08 23:47:00,
2013-04-08 18:52:00,40.6,37.0,29.91,NNE,20,2.0,7.0,87,0.00,,---,0.01,VWS V14.01,2013-04-08 23:52:00,
2013-04-08 18:57:00,40.5,36.9,29.91,SE,128,1.0,12.0,87,0.00,,---,0.01,VWS V14.01,2013-04-08 23:57:00,
2013-04-08 19:02:00,40.3,36.8,29.92,North,1,2.0,5.0,87,0.00,,---,0.01,VWS V14.01,2013-04-09 00:02:00,
2013-04-08 19:07:00,40.3,36.8,29.92,NE,47,3.0,12.0,87,0.00,,---,0.01,VWS V14.01,2013-04-09 00:07:00,
2013-04-08 19:13:00,40.2,36.3,29.92,South,182,2.0,3.0,86,0.00,,---,0.01,VWS V14.01,2013-04-09 00:13:00,
2013-04-08 19:18:00,40.1,36.3,29.93,SW,234,1.0,6.0,86,0.00,,---,0.01,VWS V14.01,2013-04-09 00:18:00,
2013-04-08 19:23:00,40.1,36.3,29.93,East,89,2.0,11.0,86,0.00,,---,0.01,VWS V14.01,2013-04-09 00:23:00,
2013-04-08 19:28:00,40.1,36.3,29.93,East,86,0.0,11.0,86,0.00,,---,0.01,VWS V14.01,2013-04-09 00:28:00,
2013-04-08 19:33:00,39.9,36.1,29.95,ESE,119,2.0,3.0,86,0.00,,---,0.01,VWS V14.01,2013-04-09 00:33:00,
2013-04-08 19:38:00,39.9,36.1,29.95,SE,127,1.0,5.0,86,0.00,,---,0.01,VWS V14.01,2013-04-09 00:38:00,
2013-04-08 19:43:00,39.9,36.1,29.95,East,83,1.0,6.0,86,0.00,,---,0.01,VWS V14.01,2013-04-09 00:43:00,
2013-04-08 19:48:00,39.9,36.1,29.95,NNE,23,2.0,6.0,86,0.00,,---,0.01,VWS V14.01,2013-04-09 00:48:00,
2013-04-08 19:53:00,39.8,36.0,29.95,North,0,3.0,5.0,86,0.00,,---,0.01,VWS V14.01,2013-04-09 00:53:00,
2013-04-08 19:58:00,39.8,36.0,29.95,East,92,2.0,6.0,86,0.00,,---,0.01,VWS V14.01,2013-04-09 00:58:00,
2013-04-08 20:03:00,39.6,35.8,29.95,East,93,1.0,7.0,86,0.00,,---,0.01,VWS V14.01,2013-04-09 01:03:00,
2013-04-08 20:08:00,39.5,35.7,29.95,East,93,1.0,7.0,86,0.00,,---,0.01,VWS V14.01,2013-04-09 01:08:00,
2013-04-08 20:13:00,39.3,35.5,29.95,NE,45,7.0,7.0,86,0.00,,---,0.01,VWS V14.01,2013-04-09 01:13:00,
2013-04-08 20:18:00,39.2,35.1,29.96,WSW,241,3.0,11.0,85,0.00,,---,0.01,VWS V14.01,2013-04-09 01:18:00,
2013-04-08 20:23:00,39.1,35.3,29.96,NNE,24,10.0,10.0,86,0.00,,---,0.01,VWS V14.01,2013-04-09 01:23:00,
2013-04-08 20:28:00,38.9,35.1,29.96,NNE,20,3.0,12.0,86,0.00,,---,0.01,VWS V14.01,2013-04-09 01:28:00,
2013-04-08 20:33:00,38.8,35.0,29.96,ESE,106,4.0,10.0,86,0.00,,---,0.01,VWS V14.01,2013-04-09 01:33:00,
2013-04-08 20:38:00,38.6,34.8,29.96,East,99,4.0,10.0,86,0.00,,---,0.01,VWS V14.01,2013-04-09 01:38:00,
2013-04-08 20:43:00,38.5,34.7,29.96,ENE,66,2.0,6.0,86,0.00,,---,0.01,VWS V14.01,2013-04-09 01:43:00,
2013-04-08 20:48:00,38.3,34.5,29.96,East,80,2.0,6.0,86,0.00,,---,0.01,VWS V14.01,2013-04-09 01:48:00,
2013-04-08 20:53:00,38.3,34.8,29.96,East,96,2.0,5.0,87,0.00,,---,0.01,VWS V14.01,2013-04-09 01:53:00,
2013-04-08 20:58:00,38.3,34.8,29.96,East,88,1.0,6.0,87,0.00,,---,0.01,VWS V14.01,2013-04-09 01:58:00,
2013-04-08 21:03:00,38.3,34.5,29.97,ESE,116,2.0,2.0,86,0.00,,---,0.01,VWS V14.01,2013-04-09 02:03:00,
2013-04-08 21:07:00,38.3,34.8,29.97,SSE,151,2.0,5.0,87,0.00,,---,0.01,VWS V14.01,2013-04-09 02:07:00,
2013-04-08 21:12:00,38.3,34.8,29.97,NE,34,8.0,8.0,87,0.00,,---,0.01,VWS V14.01,2013-04-09 02:12:00,
2013-04-08 21:17:00,38.2,34.7,29.98,ENE,58,1.0,8.0,87,0.00,,---,0.01,VWS V14.01,2013-04-09 02:17:00,
2013-04-08 21:22:00,38.2,34.7,29.98,North,357,1.0,7.0,87,0.00,,---,0.01,VWS V14.01,2013-04-09 02:22:00,
2013-04-08 21:27:00,38.2,34.7,29.98,East,80,2.0,8.0,87,0.00,,---,0.01,VWS V14.01,2013-04-09 02:27:00,
2013-04-08 21:32:00,38.2,34.4,29.99,NNW,347,1.0,3.0,86,0.00,,---,0.01,VWS V14.01,2013-04-09 02:32:00,
2013-04-08 21:37:00,38.2,34.4,29.99,East,90,0.0,5.0,86,0.00,,---,0.01,VWS V14.01,2013-04-09 02:37:00,
2013-04-08 21:43:00,38.2,34.4,29.99,ESE,104,2.0,8.0,86,0.00,,---,0.01,VWS V14.01,2013-04-09 02:43:00,
2013-04-08 21:48:00,38.0,34.2,29.99,East,83,2.0,8.0,86,0.00,,---,0.01,VWS V14.01,2013-04-09 02:48:00,
2013-04-08 21:53:00,38.0,34.2,29.99,NE,38,3.0,4.0,86,0.00,,---,0.01,VWS V14.01,2013-04-09 02:53:00,
2013-04-08 21:58:00,37.9,34.1,29.99,East,97,0.0,4.0,86,0.00,,---,0.01,VWS V14.01,2013-04-09 02:58:00,
2013-04-08 22:03:00,37.8,34.0,29.99,East,86,0.0,3.0,86,0.00,,---,0.01,VWS V14.01,2013-04-09 03:03:00,
2013-04-08 22:08:00,37.6,34.1,29.99,NNE,21,2.0,10.0,87,0.00,,---,0.01,VWS V14.01,2013-04-09 03:08:00,
2013-04-08 22:13:00,37.3,34.1,29.99,ESE,109,3.0,11.0,88,0.00,,---,0.01,VWS V14.01,2013-04-09 03:13:00,
2013-04-08 22:18:00,37.2,34.3,29.99,North,3,1.0,11.0,89,0.00,,---,0.01,VWS V14.01,2013-04-09 03:18:00,
2013-04-08 22:23:00,37.0,34.1,29.99,SE,127,2.0,6.0,89,0.00,,---,0.01,VWS V14.01,2013-04-09 03:23:00,
2013-04-08 22:28:00,37.0,34.1,29.99,ENE,64,1.0,7.0,89,0.00,,---,0.01,VWS V14.01,2013-04-09 03:28:00,
2013-04-08 22:33:00,37.0,34.1,30.01,East,95,6.0,8.0,89,0.00,,---,0.01,VWS V14.01,2013-04-09 03:33:00,
2013-04-08 22:37:00,37.0,34.1,30.01,NE,47,3.0,8.0,89,0.00,,---,0.01,VWS V14.01,2013-04-09 03:37:00,
2013-04-08 22:43:00,36.9,34.0,30.01,South,186,2.0,6.0,89,0.00,,---,0.01,VWS V14.01,2013-04-09 03:43:00,
2013-04-08 22:47:00,36.9,34.0,30.03,NNE,30,1.0,11.0,89,0.00,,---,0.01,VWS V14.01,2013-04-09 03:47:00,
2013-04-08 22:52:00,36.9,34.0,30.03,East,97,0.0,3.0,89,0.00,,---,0.01,VWS V14.01,2013-04-09 03:52:00,
2013-04-08 22:57:00,36.8,33.9,30.03,NE,51,2.0,7.0,89,0.00,,---,0.01,VWS V14.01,2013-04-09 03:57:00,
2013-04-08 23:00:00,36.8,33.9,30.03,East,82,2.0,7.0,89,0.00,,---,0.01,VWS V14.01,2013-04-09 04:00:00,
2013-04-08 23:05:00,36.8,33.9,30.03,NE,40,1.0,5.0,89,0.00,,---,0.01,VWS V14.01,2013-04-09 04:05:00,
2013-04-08 23:10:00,36.6,33.7,30.03,SE,128,0.0,5.0,89,0.00,,---,0.01,VWS V14.01,2013-04-09 04:10:00,
2013-04-08 23:15:00,36.6,33.7,30.03,ENE,68,1.0,7.0,89,0.00,,---,0.01,VWS V14.01,2013-04-09 04:15:00,
2013-04-08 23:20:00,36.6,33.7,30.03,ENE,72,1.0,7.0,89,0.00,,---,0.01,VWS V14.01,2013-04-09 04:20:00,
2013-04-08 23:25:00,36.5,33.6,30.03,East,86,2.0,6.0,89,0.00,,---,0.01,VWS V14.01,2013-04-09 04:25:00,
2013-04-08 23:30:00,36.5,33.6,30.03,NNE,30,4.0,6.0,89,0.00,,---,0.01,VWS V14.01,2013-04-09 04:30:00,
2013-04-08 23:35:00,36.5,33.6,30.05,ENE,68,0.0,3.0,89,0.00,,---,0.01,VWS V14.01,2013-04-09 04:35:00,
2013-04-08 23:40:00,36.5,33.6,30.05,East,88,5.0,5.0,89,0.00,,---,0.01,VWS V14.01,2013-04-09 04:40:00,
2013-04-08 23:45:00,36.5,33.6,30.05,ENE,72,2.0,5.0,89,0.00,,---,0.01,VWS V14.01,2013-04-09 04:45:00,
2013-04-08 23:50:00,36.5,33.6,30.03,East,93,0.0,5.0,89,0.00,,---,0.01,VWS V14.01,2013-04-09 04:50:00,
2013-04-08 23:55:00,36.3,33.4,30.03,NE,44,1.0,3.0,89,0.00,,---,0.01,VWS V14.01,2013-04-09 04:55:00,